Satellite: ASTRA 1B
Catalog number: 21139
Epoch time:      103013.00000000
Element set:     157 
Inclination:        0.0122 deg
RA of node:       319.8851 deg
Eccentricity:    0.0002995
Arg of perigee:    65.1991 deg
Mean anomaly:     106.1713 deg
Mean motion:    1.00273184 rev/day
Decay rate:    1.3899E-006 rev/day^2
Epoch rev:            3182
Checksum:              237

Satellite: METEOSAT 5 (MO
Catalog number: 21140
Epoch time:      103020.67359383
Element set:     682 
Inclination:        5.5634 deg
RA of node:        70.1411 deg
Eccentricity:    0.0000806
Arg of perigee:   218.9189 deg
Mean anomaly:     135.9922 deg
Mean motion:    1.00267750 rev/day
Decay rate:    2.4999E-007 rev/day^2
Epoch rev:            4575
Checksum:              414

Satellite: NOAA 12
Catalog number: 21263
Epoch time:      103021.11811570
Element set:     938 
Inclination:       98.6231 deg
RA of node:        11.2330 deg
Eccentricity:    0.0013625
Arg of perigee:   102.5886 deg
Mean anomaly:     257.6817 deg
Mean motion:   14.25061479 rev/day
Decay rate:    4.8100E-006 rev/day^2
Epoch rev:           60716
Checksum:              275

Satellite: OSCAR 22 (UoSA
Catalog number: 21575
Epoch time:      103020.23722011
Element set:     705 
Inclination:       98.1375 deg
RA of node:        13.8434 deg
Eccentricity:    0.0006700
Arg of perigee:   216.4542 deg
Mean anomaly:     143.6190 deg
Mean motion:   14.39133941 rev/day
Decay rate:    5.0100E-006 rev/day^2
Epoch rev:           60406
Checksum:              256

Satellite: METEOR 3-5
Catalog number: 21655
Epoch time:      103018.22201542
Element set:     492 
Inclination:       82.5559 deg
RA of node:        61.0167 deg
Eccentricity:    0.0012467
Arg of perigee:   279.0573 deg
Mean anomaly:      80.9139 deg
Mean motion:   13.16978634 rev/day
Decay rate:    5.1000E-007 rev/day^2
Epoch rev:           54935
Checksum:              306

Satellite: UARS
Catalog number: 21701
Epoch time:      103020.42739370
Element set:     804 
Inclination:       56.9790 deg
RA of node:       149.9943 deg
Eccentricity:    0.0005947
Arg of perigee:   117.2526 deg
Mean anomaly:     242.9059 deg
Mean motion:   15.02796911 rev/day
Decay rate:    1.3410E-005 rev/day^2
Epoch rev:           62133
Checksum:              298

Satellite: EUTELSAT 2-F3
Catalog number: 21803
Epoch time:      103018.86505557
Element set:     510 
Inclination:        2.5220 deg
RA of node:        89.4889 deg
Eccentricity:    0.0002831
Arg of perigee:   229.7037 deg
Mean anomaly:     131.6203 deg
Mean motion:    1.00278675 rev/day
Decay rate:    1.3899E-006 rev/day^2
Epoch rev:            3669
Checksum:              301

Satellite: INMARSAT 2-F3
Catalog number: 21814
Epoch time:      103020.14726326
Element set:     603 
Inclination:        1.6866 deg
RA of node:        56.9816 deg
Eccentricity:    0.0002466
Arg of perigee:   249.6518 deg
Mean anomaly:      83.4852 deg
Mean motion:    1.00275467 rev/day
Decay rate:    1.1900E-006 rev/day^2
Epoch rev:            4059
Checksum:              288

Satellite: INMARSAT 2-F4
Catalog number: 21940
Epoch time:      103020.34919135
Element set:     565 
Inclination:        2.3833 deg
RA of node:        17.7541 deg
Eccentricity:    0.0002167
Arg of perigee:   249.3231 deg
Mean anomaly:      86.9060 deg
Mean motion:    1.00267500 rev/day
Decay rate:   -3.4499E-006 rev/day^2
Epoch rev:            3938
Checksum:              281

Satellite: EUTELSAT 2-F4
Catalog number: 22028
Epoch time:      103020.89447325
Element set:     319 
Inclination:        1.6475 deg
RA of node:        92.9714 deg
Eccentricity:    0.0006128
Arg of perigee:   211.7183 deg
Mean anomaly:     124.8572 deg
Mean motion:    1.00272371 rev/day
Decay rate:   -9.4000E-007 rev/day^2
Epoch rev:            3148
Checksum:              381

Satellite: OSCAR 23 (KITS
Catalog number: 22077
Epoch time:      103019.16986830
Element set:     148 
Inclination:       66.0835 deg
RA of node:       189.3884 deg
Eccentricity:    0.0014939
Arg of perigee:   280.7036 deg
Mean anomaly:      79.2301 deg
Mean motion:   12.86407797 rev/day
Decay rate:   -3.7000E-007 rev/day^2
Epoch rev:           49039
Checksum:              336

Satellite: ASTRA 1C
Catalog number: 22653
Epoch time:      103013.00000000
Element set:     783 
Inclination:        0.0122 deg
RA of node:       319.8851 deg
Eccentricity:    0.0002995
Arg of perigee:    65.1991 deg
Mean anomaly:     106.1253 deg
Mean motion:    1.00273184 rev/day
Decay rate:    1.3899E-006 rev/day^2
Epoch rev:            3052
Checksum:              239

Satellite: METEOR 2-21
Catalog number: 22782
Epoch time:      103021.11307091
Element set:     497 
Inclination:       82.5456 deg
RA of node:       237.4652 deg
Eccentricity:    0.0023708
Arg of perigee:    66.8040 deg
Mean anomaly:     293.5614 deg
Mean motion:   13.83530383 rev/day
Decay rate:    1.1700E-006 rev/day^2
Epoch rev:           47415
Checksum:              289

Satellite: KITSAT B
Catalog number: 22825
Epoch time:      103020.20312994
Element set:     466 
Inclination:       98.2778 deg
RA of node:        51.3938 deg
Eccentricity:    0.0008651
Arg of perigee:   353.3048 deg
Mean anomaly:       6.8017 deg
Mean motion:   14.28932512 rev/day
Decay rate:    2.3099E-006 rev/day^2
Epoch rev:           48568
Checksum:              314

Satellite: POSAT 1
Catalog number: 22826
Epoch time:      103020.65804469
Element set:     297 
Inclination:       98.2781 deg
RA of node:        52.9264 deg
Eccentricity:    0.0009349
Arg of perigee:   350.2725 deg
Mean anomaly:       9.8266 deg
Mean motion:   14.29154769 rev/day
Decay rate:    2.4599E-006 rev/day^2
Epoch rev:           48579
Checksum:              354

Satellite: ITAMSAT
Catalog number: 22828
Epoch time:      103020.64528600
Element set:     406 
Inclination:       98.2745 deg
RA of node:        53.1791 deg
Eccentricity:    0.0010049
Arg of perigee:   329.3271 deg
Mean anomaly:      30.7323 deg
Mean motion:   14.29498529 rev/day
Decay rate:    2.2300E-006 rev/day^2
Epoch rev:           45399
Checksum:              292

Satellite: EYESAT A
Catalog number: 22829
Epoch time:      103020.65968371
Element set:     430 
Inclination:       98.2766 deg
RA of node:        53.7833 deg
Eccentricity:    0.0009785
Arg of perigee:   329.8753 deg
Mean anomaly:      30.1855 deg
Mean motion:   14.29753354 rev/day
Decay rate:    3.3199E-006 rev/day^2
Epoch rev:           48592
Checksum:              346

Satellite: METEOSAT 6
Catalog number: 22912
Epoch time:      103018.87520258
Element set:     642 
Inclination:        2.6056 deg
RA of node:        82.5669 deg
Eccentricity:    0.0000870
Arg of perigee:   251.1131 deg
Mean anomaly:     108.5338 deg
Mean motion:    1.00273361 rev/day
Decay rate:    7.0999E-007 rev/day^2
Epoch rev:            3198
Checksum:              415

Satellite: GOES 8
Catalog number: 23051
Epoch time:      103021.37144942
Element set:     570 
Inclination:        0.2308 deg
RA of node:       105.6780 deg
Eccentricity:    0.0002388
Arg of perigee:   196.5117 deg
Mean anomaly:     236.1092 deg
Mean motion:    1.00257460 rev/day
Decay rate:   -2.4099E-006 rev/day^2
Epoch rev:            3952
Checksum:              269

Satellite: ASTRA 1D
Catalog number: 23331
Epoch time:      103020.80568506
Element set:     804 
Inclination:        0.0442 deg
RA of node:       212.5164 deg
Eccentricity:    0.0002193
Arg of perigee:    99.2253 deg
Mean anomaly:     122.2449 deg
Mean motion:    1.00274550 rev/day
Decay rate:    1.4600E-006 rev/day^2
Epoch rev:            3058
Checksum:              234

Satellite: RADIO ROSTO
Catalog number: 23439
Epoch time:      103018.16267362
Element set:     676 
Inclination:       64.8160 deg
RA of node:        92.2698 deg
Eccentricity:    0.0147649
Arg of perigee:   121.3252 deg
Mean anomaly:     240.2220 deg
Mean motion:   11.27547996 rev/day
Decay rate:   -4.1999E-007 rev/day^2
Epoch rev:           33205
Checksum:              316

Satellite: NOAA 14
Catalog number: 23455
Epoch time:      103021.15581167
Element set:     493 
Inclination:       99.1878 deg
RA of node:        38.9753 deg
Eccentricity:    0.0008848
Arg of perigee:   312.7754 deg
Mean anomaly:      47.2673 deg
Mean motion:   14.13287045 rev/day
Decay rate:    2.6600E-006 rev/day^2
Epoch rev:           41546
Checksum:              433

Satellite: HIMAWARI 5 (GM
Catalog number: 23522
Epoch time:      103020.60259907
Element set:     63 
Inclination:        1.6826 deg
RA of node:        83.1325 deg
Eccentricity:    0.0000700
Arg of perigee:    96.4732 deg
Mean anomaly:     297.0550 deg
Mean motion:    1.00267633 rev/day
Decay rate:   -2.7500E-006 rev/day^2
Epoch rev:            2860
Checksum:              396

Satellite: HOT BIRD 1
Catalog number: 23537
Epoch time:      103013.80550721
Element set:     533 
Inclination:        0.0070 deg
RA of node:       236.2796 deg
Eccentricity:    0.0008090
Arg of perigee:    86.9786 deg
Mean anomaly:      92.5958 deg
Mean motion:    1.00275871 rev/day
Decay rate:    1.0700E-006 rev/day^2
Epoch rev:            2861
Checksum:              279

Satellite: GOES 9
Catalog number: 23581
Epoch time:      103017.41178810
Element set:     477 
Inclination:        0.3599 deg
RA of node:       278.0713 deg
Eccentricity:    0.0007570
Arg of perigee:   223.9498 deg
Mean anomaly:     351.8607 deg
Mean motion:    1.00034711 rev/day
Decay rate:    1.0600E-006 rev/day^2
Epoch rev:            2804
Checksum:              281

